Location: Dumpton Point
(51.3500°N, 1.4433°E)
Time: 22:19:42
(UTC+00:00)

Vanguard 2 Rocket - Pass Details

Date: 30 September 2022
Orbit: 555 x 3321 km, 32.9° (Epoch: 08 December)

Event Time Altitude Azimuth Distance (km) Brightness Sun altitude
Rises 02:48:34 0° 248° (WSW) 4,489 - -28.1°
Reaches altitude 10° 02:54:15 10° 221° (SW) 2,860 - -27.3°
Maximum altitude 02:56:33 12° 201° (SSW) 2,474 - -27.0°
Drops below altitude 10° 02:58:34 10° 179° (S) 2,407 - -26.8°
Exits shadow 03:01:35 - 151° (SSE) 2,830 9.4 -26.4°
Sets 03:02:18 0° 146° (SSE) 3,001 9.6 -26.3°
